Location: ?ejkovice
(49.0137°N, 14.3821°E)
Time: 20:18:56
(UTC+00:00)

Cosmos 1833 Rocket - Pass Details

Date: 23 May 2024
Orbit: 831 x 839 km, 71.0° (Epoch: 21 June)

Event Time Altitude Azimuth Distance (km) Brightness Sun altitude
Exits shadow 00:08:09 14° 253° (WSW) 2,169 4.5 -18.7°
Maximum altitude 00:12:20 33° 311° (NW) 1,374 4.0 -18.5°
Drops below altitude 10° 00:17:23 10° 15° (NNE) 2,454 6.4 -18.2°
Sets 00:20:06 0° 25° (NNE) 3,393 7.5 -18.1°
